Bowling Green, KY

2:13 AM CDT on April 30, 2017 (GMT -0500)
Bowling Green-Warren County Regional

Weather History for KBWG - April, 2013

Change the Weather History Date:

Saturday, April 27, 2013

  Actual Average Record
Temperature  
Mean Temperature 58 °F 61 °F  
Max Temperature 64 °F 73 °F 90 °F (1989)
Min Temperature 51 °F 49 °F 31 °F (1946)
Degree Days  
Heating Degree Days 7 5  
Month to date heating degree days 241 236  
Since 1 July heating degree days 3813 3954  
Cooling Degree Days 0 1  
Month to date cooling degree days 53 26  
Year to date cooling degree days 53 31  
Growing Degree Days 8 (Base 50)    
Moisture  
Dew Point 54 °F    
Average Humidity 86    
Maximum Humidity 93    
Minimum Humidity 78    
Precipitation  
Precipitation 2.18 in 0.16 in 2.43 in (2011)
Month to date precipitation 6.45 3.87  
Year to date precipitation 19.35 15.85  
Snow  
Snow 0.00 in 0.00 in 0.00 in ()
Month to date snowfall 0.0 0.2  
Since 1 July snowfall 3.8 9.1  
Snow Depth 0.00 in    
Sea Level Pressure  
Sea Level Pressure 30.12 in    
Wind  
Wind Speed 6 mph (ESE)    
Max Wind Speed 20 mph    
Max Gust Speed 24 mph    
Visibility 5 miles    
Events Rain , Thunderstorm    
T = Trace of Precipitation, MM = Missing Value Source: NWS Daily Summary

Daily Weather History Graph

Daily Weather History Graph

Search for Another Location

Airport or City:

Trip Planner

Search our weather history database for the weather conditions in past years. The results will help you decide how hot, cold, wet, or windy it might be!

Date:

Astronomy

Apr. 27, 2013 Rise Set
Actual Time 5:55 AM CDT 7:31 PM CDT
Civil Twilight 5:28 AM CDT 7:58 PM CDT
Nautical Twilight 4:55 AM CDT 8:32 PM CDT
Astronomical Twilight 4:20 AM CDT 9:07 PM CDT
Moon 9:57 PM CDT (4/27) 7:16 AM CDT (4/27)
Length of Visible Light 14h 30m
Length of Day
13h 35m
Waning Gibbous, 95% of the Moon is Illuminated
Apr 27
Waning Gibbous
May 2
Last Quarter
May 9
New
May 17
First Quarter
May 24
Full

Hourly Weather History & Observations

Time (CDT) Temp. Dew Point Humidity Pressure Visibility Wind Dir Wind Speed Gust Speed Precip Events Conditions
12:53 AM 53.1 °F 48.9 °F 86% 30.35 in 8.0 mi Calm Calm - 0.01 in Rain Light Rain
1:53 AM 52.0 °F 48.9 °F 89% 30.32 in 5.0 mi Calm Calm - 0.01 in Rain Light Rain
2:53 AM 52.0 °F 48.9 °F 89% 30.30 in 9.0 mi East 3.5 mph - 0.01 in   Overcast
3:53 AM 52.0 °F 48.9 °F 89% 30.28 in 8.0 mi ESE 4.6 mph - N/A   Overcast
4:53 AM 52.0 °F 48.9 °F 89% 30.26 in 8.0 mi Calm Calm - N/A   Overcast
5:53 AM 52.0 °F 48.9 °F 89% 30.25 in 6.0 mi ESE 4.6 mph - N/A   Overcast
6:53 AM 53.1 °F 50.0 °F 89% 30.24 in 7.0 mi East 4.6 mph - N/A   Overcast
7:53 AM 54.0 °F 48.9 °F 83% 30.25 in 10.0 mi ESE 6.9 mph - 0.00 in   Overcast
8:42 AM 55.4 °F 50.0 °F 82% 30.24 in 10.0 mi East 4.6 mph - 0.01 in   Overcast
8:53 AM 55.0 °F 50.0 °F 83% 30.24 in 10.0 mi East 5.8 mph - 0.01 in   Overcast
9:53 AM 55.0 °F 51.1 °F 86% 30.22 in 5.0 mi East 9.2 mph - 0.03 in Rain Light Rain
10:36 AM 55.4 °F 51.8 °F 88% 30.24 in 5.0 mi East 5.8 mph - 0.04 in Rain Light Rain
10:53 AM 55.9 °F 52.0 °F 87% 30.24 in 4.0 mi East 4.6 mph - 0.09 in Rain Rain
11:16 AM 55.4 °F 51.8 °F 88% 30.23 in 4.0 mi East 5.8 mph - 0.07 in Rain Rain
11:34 AM 55.4 °F 53.6 °F 94% 30.22 in 5.0 mi East 5.8 mph - 0.11 in Rain Rain
11:53 AM 55.9 °F 53.1 °F 90% 30.22 in 3.0 mi East 5.8 mph - 0.15 in Rain Rain
12:14 PM 55.4 °F 53.6 °F 94% 30.21 in 4.0 mi East 4.6 mph - 0.04 in Rain Rain
12:46 PM 57.2 °F 53.6 °F 88% 30.18 in 4.0 mi East 4.6 mph - 0.09 in Rain Light Rain
12:53 PM 57.0 °F 54.0 °F 89% 30.18 in 7.0 mi ENE 3.5 mph - 0.09 in Rain Light Rain
1:43 PM 60.8 °F 55.4 °F 82% 30.16 in 10.0 mi SE 8.1 mph - 0.00 in   Overcast
1:53 PM 61.0 °F 55.9 °F 83% 30.15 in 10.0 mi SE 9.2 mph - 0.00 in   Overcast
2:04 PM 62.6 °F 55.4 °F 77% 30.14 in 10.0 mi SSE 9.2 mph - N/A   Overcast
2:53 PM 63.0 °F 55.9 °F 78% 30.12 in 10.0 mi SSE 13.8 mph - N/A   Overcast
3:53 PM 62.1 °F 55.0 °F 78% 30.10 in 10.0 mi SSE 13.8 mph - N/A   Overcast
4:53 PM 61.0 °F 55.0 °F 81% 30.08 in 5.0 mi SSE 9.2 mph - 0.00 in Rain Light Rain
5:02 PM 60.8 °F 55.4 °F 82% 30.08 in 3.0 mi SSE 5.8 mph - 0.01 in Rain Light Rain
5:51 PM 60.8 °F 55.4 °F 82% 30.06 in 5.0 mi SE 6.9 mph - 0.02 in Rain Light Rain
5:53 PM 60.1 °F 55.9 °F 86% 30.06 in 4.0 mi SE 8.1 mph - 0.03 in Rain Light Rain
6:01 PM 59.0 °F 55.4 °F 88% 30.06 in 2.0 mi East 3.5 mph - 0.02 in Rain Rain
6:22 PM 59.0 °F 55.4 °F 88% 30.04 in 2.5 mi SE 9.2 mph - 0.10 in Rain Rain
6:29 PM 59.0 °F 55.4 °F 88% 30.04 in 3.0 mi SE 10.4 mph - 0.11 in Rain Light Rain
6:53 PM 59.0 °F 55.9 °F 90% 30.05 in 10.0 mi Calm Calm - 0.12 in   Overcast
7:29 PM 59.0 °F 55.4 °F 88% 30.04 in 4.0 mi Calm Calm - 0.03 in Rain , Thunderstorm Thunderstorms and Rain
7:48 PM 59.0 °F 55.4 °F 88% 30.03 in 2.5 mi North 3.5 mph - 0.11 in Rain , Thunderstorm Heavy Thunderstorms and Rain
7:53 PM 59.0 °F 55.9 °F 90% 30.03 in 2.5 mi NNE 4.6 mph - 0.12 in Rain , Thunderstorm Rain
7:56 PM 59.0 °F 55.4 °F 88% 30.03 in 3.0 mi NNE 5.8 mph - 0.01 in Rain , Thunderstorm Rain
8:10 PM 57.2 °F 55.4 °F 94% 30.05 in 1.8 mi Calm Calm - 0.14 in Rain , Thunderstorm Heavy Thunderstorms and Rain
8:13 PM 57.2 °F 55.4 °F 94% 30.06 in 1.2 mi Calm Calm - 0.19 in Rain , Thunderstorm Heavy Thunderstorms and Rain
8:22 PM 57.2 °F 55.4 °F 94% 30.06 in 0.8 mi ESE 3.5 mph - 0.41 in Rain , Thunderstorm Heavy Thunderstorms and Rain
8:30 PM 57.2 °F 55.4 °F 94% 30.05 in 1.5 mi East 6.9 mph - 0.50 in Rain , Thunderstorm Heavy Thunderstorms and Rain
8:37 PM 57.2 °F 55.4 °F 94% 30.04 in 1.8 mi East 6.9 mph - 0.58 in Rain , Thunderstorm Heavy Thunderstorms and Rain
8:53 PM 57.9 °F 55.9 °F 93% 30.04 in 2.5 mi Calm Calm - 0.73 in Rain , Thunderstorm Heavy Thunderstorms and Rain
9:00 PM 57.2 °F 55.4 °F 94% 30.05 in 2.5 mi Calm Calm - 0.03 in Rain , Thunderstorm Heavy Thunderstorms and Rain
9:09 PM 57.2 °F 55.4 °F 94% 30.06 in 2.5 mi Calm Calm - 0.07 in Rain , Thunderstorm Rain
9:20 PM 57.2 °F 55.4 °F 94% 30.06 in 3.0 mi East 4.6 mph - 0.11 in Rain Rain
9:28 PM 57.2 °F 55.4 °F 94% 30.05 in 4.0 mi East 8.1 mph - 0.14 in Rain , Thunderstorm Thunderstorms and Rain
9:53 PM 57.9 °F 55.0 °F 90% 30.04 in 4.0 mi ESE 5.8 mph - 0.24 in Rain Heavy Rain
10:35 PM 57.2 °F 55.4 °F 94% 29.97 in 9.0 mi ESE 16.1 mph - 0.11 in Rain , Thunderstorm Rain
10:53 PM 57.9 °F 55.0 °F 90% 30.01 in 5.0 mi ESE 5.8 mph - 0.16 in Rain , Thunderstorm Rain
11:22 PM 57.2 °F 55.4 °F 94% 29.99 in 5.0 mi SE 11.5 mph - 0.11 in Rain , Thunderstorm Rain
11:34 PM 57.2 °F 55.4 °F 94% 29.99 in 5.0 mi SE 10.4 mph - 0.15 in Rain Heavy Rain
11:43 PM 57.2 °F 55.4 °F 94% 29.98 in 3.0 mi SE 12.7 mph - 0.18 in Rain , Thunderstorm Rain
11:53 PM 57.9 °F 55.0 °F 90% 29.98 in 5.0 mi SSE 11.5 mph 19.6 mph 0.21 in Rain , Thunderstorm Rain